EN

Hourly Weather Amarillo

Today, 23 January, Saturday

Time Temperature Precipitation Wind Pressure Humidity
00:00 +20°C° 0 mm 1 mps 683 mmHg 80%
01:00 +20°C° 0 mm 1 mps 683 mmHg 81%
02:00 +19°C° 0 mm 1 mps 683 mmHg 82%
03:00 +19°C° 0 mm 1 mps 682 mmHg 83%
04:00 +18°C° 0 mm 2 mps 683 mmHg 84%
05:00 +18°C° 0 mm 2 mps 683 mmHg 85%
06:00 +17°C° 0 mm 2 mps 683 mmHg 86%
07:00 +20°C° 0 mm 2 mps 684 mmHg 74%
08:00 +24°C° 0 mm 2 mps 685 mmHg 62%
09:00 +26°C° 0 mm 2 mps 686 mmHg 50%
10:00 +28°C° 0 mm 2 mps 686 mmHg 44%
11:00 +29°C° 0 mm 2 mps 685 mmHg 38%
12:00 +31°C° 0 mm 3 mps 685 mmHg 31%
13:00 +31°C° 0 mm 3 mps 684 mmHg 31%
14:00 +31°C° 0 mm 3 mps 684 mmHg 31%
15:00 +31°C° 0 mm 3 mps 683 mmHg 31%
16:00 +29°C° 0 mm 3 mps 683 mmHg 39%
17:00 +26°C° 0 mm 2 mps 683 mmHg 46%
18:00 +24°C° 0 mm 2 mps 682 mmHg 54%
19:00 +23°C° 0 mm 2 mps 683 mmHg 58%
20:00 +23°C° 0 mm 2 mps 683 mmHg 61%
21:00 +21°C° 0 mm 2 mps 684 mmHg 65%
22:00 +20°C° 0 mm 2 mps 683 mmHg 68%
23:00 +19°C° 0 mm 2 mps 683 mmHg 71%

Tomorrow, 24 January, Sunday

Time Temperature Precipitation Wind Pressure Humidity
00:00 +19°C° 0 mm 2 mps 683 mmHg 74%
01:00 +19°C° 0 mm 2 mps 683 mmHg 76%
02:00 +18°C° 0 mm 2 mps 682 mmHg 78%
03:00 +18°C° 0 mm 2 mps 682 mmHg 80%
04:00 +18°C° 0 mm 2 mps 682 mmHg 82%
05:00 +18°C° 0 mm 2 mps 683 mmHg 84%
06:00 +18°C° 0 mm 2 mps 683 mmHg 86%
07:00 +20°C° 0 mm 2 mps 684 mmHg 76%
08:00 +23°C° 0 mm 2 mps 684 mmHg 66%
09:00 +26°C° 0 mm 2 mps 685 mmHg 56%
10:00 +27°C° 0 mm 3 mps 685 mmHg 51%
11:00 +28°C° 0 mm 3 mps 685 mmHg 45%
12:00 +30°C° 0 mm 3 mps 684 mmHg 39%
13:00 +30°C° 0 mm 3 mps 684 mmHg 39%
14:00 +30°C° 0 mm 3 mps 683 mmHg 39%
15:00 +30°C° 0 mm 3 mps 682 mmHg 39%
16:00 +28°C° 0 mm 3 mps 682 mmHg 46%
17:00 +26°C° 0 mm 2 mps 682 mmHg 54%
18:00 +24°C° 0 mm 2 mps 682 mmHg 62%
19:00 +23°C° 0 mm 2 mps 682 mmHg 65%
20:00 +21°C° 0 mm 2 mps 682 mmHg 69%
21:00 +20°C° 0 mm 2 mps 683 mmHg 73%
22:00 +20°C° 0 mm 2 mps 682 mmHg 75%
23:00 +19°C° 0 mm 2 mps 682 mmHg 78%

Day after tomorrow, 25 January, Monday

Time Temperature Precipitation Wind Pressure Humidity
00:00 +19°C° 0 mm 2 mps 682 mmHg 80%
01:00 +19°C° 0 mm 2 mps 682 mmHg 82%
02:00 +18°C° 0 mm 2 mps 682 mmHg 84%
03:00 +18°C° 0 mm 2 mps 682 mmHg 86%
04:00 +18°C° 0 mm 2 mps 682 mmHg 87%
05:00 +18°C° 0 mm 2 mps 682 mmHg 87%
06:00 +18°C° 0 mm 2 mps 682 mmHg 88%
07:00 +20°C° 0 mm 2 mps 683 mmHg 76%
08:00 +24°C° 0 mm 2 mps 684 mmHg 64%
09:00 +26°C° 0 mm 2 mps 685 mmHg 52%
10:00 +28°C° 0 mm 2 mps 685 mmHg 49%
11:00 +29°C° 0 mm 2 mps 684 mmHg 45%
12:00 +31°C° 0 mm 2 mps 684 mmHg 42%
13:00 +30°C° 0 mm 2 mps 684 mmHg 43%
14:00 +30°C° 0 mm 2 mps 683 mmHg 44%
15:00 +30°C° 0 mm 2 mps 682 mmHg 45%
16:00 +28°C° 0 mm 2 mps 682 mmHg 52%
17:00 +26°C° 0 mm 2 mps 682 mmHg 59%
18:00 +25°C° 0 mm 2 mps 682 mmHg 66%
19:00 +24°C° 0 mm 2 mps 682 mmHg 70%
20:00 +23°C° 0 mm 2 mps 682 mmHg 75%
21:00 +21°C° 0 mm 2 mps 682 mmHg 80%
22:00 +20°C° 0 mm 2 mps 682 mmHg 82%
23:00 +20°C° 0 mm 2 mps 682 mmHg 84%

26 January, Tuesday

Time Temperature Precipitation Wind Pressure Humidity
00:00 +20°C° 0 mm 1 mps 682 mmHg 85%
01:00 +20°C° 0 mm 1 mps 682 mmHg 87%
02:00 +20°C° 0 mm 1 mps 682 mmHg 88%
03:00 +18°C° 0 mm 2 mps 682 mmHg 90%
04:00 +18°C° 0 mm 2 mps 682 mmHg 91%
05:00 +18°C° 0 mm 2 mps 682 mmHg 91%
06:00 +17°C° 0 mm 2 mps 682 mmHg 92%
07:00 +20°C° 0 mm 2 mps 683 mmHg 79%
08:00 +23°C° 0 mm 2 mps 684 mmHg 66%
09:00 +26°C° 0 mm 2 mps 685 mmHg 54%
10:00 +28°C° 0 mm 2 mps 685 mmHg 47%
11:00 +29°C° 0 mm 2 mps 684 mmHg 41%
12:00 +31°C° 0 mm 2 mps 684 mmHg 35%
13:00 +31°C° 0 mm 3 mps 683 mmHg 35%
14:00 +31°C° 0 mm 3 mps 683 mmHg 35%
15:00 +31°C° 0 mm 3 mps 682 mmHg 35%
16:00 +29°C° 0 mm 3 mps 682 mmHg 43%
17:00 +27°C° 0 mm 2 mps 682 mmHg 51%
18:00 +25°C° 0 mm 2 mps 682 mmHg 59%
19:00 +24°C° 0 mm 2 mps 682 mmHg 66%
20:00 +23°C° 0 mm 2 mps 683 mmHg 72%
21:00 +21°C° 0 mm 2 mps 683 mmHg 78%
22:00 +20°C° 0 mm 2 mps 683 mmHg 81%
23:00 +19°C° 0 mm 2 mps 683 mmHg 83%

27 January, Wednesday

Time Temperature Precipitation Wind Pressure Humidity
00:00 +19°C° 0 mm 2 mps 683 mmHg 86%
01:00 +18°C° 0 mm 2 mps 682 mmHg 87%
02:00 +18°C° 0 mm 2 mps 682 mmHg 88%
03:00 +17°C° 0 mm 2 mps 682 mmHg 89%
04:00 +17°C° 0 mm 2 mps 682 mmHg 89%
05:00 +17°C° 0 mm 2 mps 682 mmHg 89%
06:00 +16°C° 0 mm 2 mps 683 mmHg 90%
07:00 +19°C° 0 mm 2 mps 683 mmHg 78%
08:00 +21°C° 0 mm 2 mps 684 mmHg 66%
09:00 +24°C° 0 mm 2 mps 685 mmHg 55%
10:00 +26°C° 0 mm 2 mps 685 mmHg 49%
11:00 +28°C° 0 mm 3 mps 685 mmHg 43%
12:00 +30°C° 0 mm 3 mps 685 mmHg 37%
13:00 +30°C° 0 mm 3 mps 684 mmHg 37%
14:00 +30°C° 0 mm 3 mps 684 mmHg 37%
15:00 +31°C° 0 mm 3 mps 683 mmHg 37%
16:00 +28°C° 0 mm 3 mps 683 mmHg 44%
17:00 +26°C° 0 mm 3 mps 683 mmHg 52%
18:00 +24°C° 0 mm 3 mps 683 mmHg 60%
19:00 +23°C° 0 mm 2 mps 683 mmHg 64%
20:00 +21°C° 0 mm 2 mps 683 mmHg 69%
21:00 +20°C° 0 mm 2 mps 684 mmHg 74%
22:00 +19°C° 0 mm 2 mps 684 mmHg 75%
23:00 +19°C° 0 mm 2 mps 683 mmHg 77%

28 January, Thursday

Time Temperature Precipitation Wind Pressure Humidity
00:00 +18°C° 0 mm 2 mps 683 mmHg 78%
01:00 +18°C° 0 mm 2 mps 683 mmHg 79%
02:00 +18°C° 0 mm 2 mps 683 mmHg 81%
03:00 +17°C° 0 mm 2 mps 683 mmHg 82%
04:00 +17°C° 0 mm 3 mps 683 mmHg 84%
05:00 +17°C° 0 mm 3 mps 683 mmHg 85%
06:00 +17°C° 0 mm 3 mps 683 mmHg 87%
07:00 +19°C° 0 mm 3 mps 684 mmHg 76%
08:00 +22°C° 0 mm 3 mps 685 mmHg 65%
09:00 +26°C° 0 mm 3 mps 686 mmHg 54%
10:00 +27°C° 0 mm 4 mps 686 mmHg 48%
11:00 +29°C° 0 mm 4 mps 686 mmHg 42%
12:00 +30°C° 0 mm 5 mps 685 mmHg 37%
Show more